Wolf Point, MT

9:23 AM MDT on April 27, 2017 (GMT -0600)
Clayton

Weather History for KOLF - February, 2013

Change the Weather History Date:

Tuesday, February 26, 2013

  Actual Average Record
Temperature  
Mean Temperature 31 °F -  
Max Temperature 34 °F 34 °F 61 °F (2016)
Min Temperature 27 °F 10 °F -37 °F (2011)
Degree Days  
Heating Degree Days 34    
Cooling Degree Days 0    
Moisture  
Dew Point 25 °F    
Average Humidity 80    
Maximum Humidity 92    
Minimum Humidity 73    
Precipitation  
Precipitation 0.00 in 0.01 in 0.00 in (2017)
Month to date precipitation 0.09 0.18  
Year to date precipitation 0.20 0.49  
Sea Level Pressure  
Sea Level Pressure 30.06 in    
Wind  
Wind Speed 9 mph (West)    
Max Wind Speed 20 mph    
Max Gust Speed 24 mph    
Visibility 9 miles    
Events      
T = Trace of Precipitation, MM = Missing Value Source: NWS Daily Summary

Daily Weather History Graph

Daily Weather History Graph

Search for Another Location

Airport or City:

Trip Planner

Search our weather history database for the weather conditions in past years. The results will help you decide how hot, cold, wet, or windy it might be!

Date:

Astronomy

Feb. 26, 2013 Rise Set
Actual Time 6:48 AM MST 5:42 PM MST
Civil Twilight 6:17 AM MST 6:13 PM MST
Nautical Twilight 5:41 AM MST 6:49 PM MST
Astronomical Twilight 5:05 AM MST 7:25 PM MST
Moon 7:12 PM MST (2/26) 6:44 AM MST (2/26)
Length of Visible Light 11h 56m
Length of Day
10h 54m
Full, 99% of the Moon is Illuminated
Feb 26
Full
Mar 4
Last Quarter
Mar 11
New
Mar 19
First Quarter
Mar 27
Full

Hourly Weather History & Observations

Time (MST) Temp. Windchill Dew Point Humidity Pressure Visibility Wind Dir Wind Speed Gust Speed Precip Events Conditions
12:53 AM 30.0 °F 26.5 °F 26.1 °F 85% 29.86 in 10.0 mi SW 3.5 mph - N/A   Scattered Clouds
1:53 AM 30.0 °F 26.5 °F 26.1 °F 85% 29.86 in 10.0 mi West 3.5 mph - N/A   Partly Cloudy
2:53 AM 28.0 °F 24.2 °F 26.1 °F 92% 29.86 in 10.0 mi WSW 3.5 mph - N/A   Clear
3:53 AM 30.0 °F 26.5 °F 26.1 °F 85% 29.87 in 10.0 mi WSW 3.5 mph - N/A   Clear
4:53 AM 28.9 °F 23.9 °F 25.0 °F 85% 29.90 in 10.0 mi WSW 4.6 mph - N/A   Clear
5:53 AM 28.9 °F 19.8 °F 24.1 °F 82% 29.94 in 10.0 mi WSW 10.4 mph - N/A   Clear
6:53 AM 28.9 °F 18.6 °F 25.0 °F 85% 29.96 in 10.0 mi West 12.7 mph - N/A   Clear
7:53 AM 28.9 °F 20.4 °F 24.1 °F 82% 30.01 in 10.0 mi West 9.2 mph - N/A   Clear
8:22 AM 28.4 °F 16.6 °F 24.8 °F 86% 29.95 in 8.0 mi WNW 16.1 mph - N/A   Mostly Cloudy
8:53 AM 30.0 °F 18.3 °F 26.1 °F 85% 30.04 in 9.0 mi WNW 17.3 mph - N/A   Overcast
9:53 AM 32.0 °F 21.6 °F 27.0 °F 82% 30.05 in 8.0 mi West 15.0 mph - N/A   Overcast
10:17 AM 32.0 °F 20.5 °F 26.6 °F 80% 29.98 in 8.0 mi West 18.4 mph - N/A   Overcast
10:53 AM 33.1 °F 22.6 °F 27.0 °F 78% 30.06 in 7.0 mi West 16.1 mph 20.7 mph N/A   Overcast
11:53 AM 33.1 °F 21.5 °F 26.1 °F 75% 30.06 in 6.0 mi West 19.6 mph - N/A   Haze
12:53 PM 33.1 °F 23.0 °F 26.1 °F 75% 30.07 in 6.0 mi West 15.0 mph 23.0 mph N/A   Haze
1:53 PM 34.0 °F 23.8 °F 26.1 °F 73% 30.09 in 8.0 mi West 16.1 mph 24.2 mph N/A   Overcast
2:53 PM 33.1 °F 23.4 °F 26.1 °F 75% 30.12 in 8.0 mi WNW 13.8 mph - N/A   Overcast
3:53 PM 33.1 °F 23.4 °F 26.1 °F 75% 30.14 in 10.0 mi WNW 13.8 mph - N/A   Overcast
4:53 PM 33.8 °F 24.3 °F 26.6 °F 75% 30.08 in 9.0 mi WNW 13.8 mph - N/A   Overcast
5:53 PM 32.0 °F 22.5 °F 25.0 °F 75% 30.17 in 10.0 mi West 12.7 mph - N/A   Overcast
6:53 PM 30.0 °F 17.9 °F 24.1 °F 79% 30.20 in 10.0 mi NW 18.4 mph - N/A   Overcast
7:53 PM 28.9 °F 21.1 °F 24.1 °F 82% 30.22 in 10.0 mi NW 8.1 mph - N/A   Overcast
8:53 PM 28.9 °F 19.2 °F 23.0 °F 78% 30.23 in 10.0 mi WNW 11.5 mph - N/A   Overcast
9:53 PM 28.9 °F 19.2 °F 21.9 °F 75% 30.25 in 10.0 mi NNW 11.5 mph - N/A   Overcast
10:53 PM 28.0 °F 19.3 °F 23.0 °F 81% 30.26 in 10.0 mi NW 9.2 mph - N/A   Overcast
11:53 PM 28.0 °F 20.8 °F 23.0 °F 81% 30.26 in 10.0 mi NW 6.9 mph - N/A   Overcast